| time (UTC) | temp F | wind direction | speed knots | gust knots | rain 1hr in | rain 24hr in | rain mn in | humidity % | barometer mb |
| 20260505213103 | 68 | 86 | 0.0 | 2.6 | 0.00 | 0.56 | 0.02 | 61 | 1016.2 |
| 20260505211554 | 67 | 121 | 0.0 | 3.5 | 0.00 | 0.56 | 0.02 | 61 | 1016.2 |
| 20260505210058 | 67 | 106 | 0.9 | 5.2 | 0.00 | 0.56 | 0.02 | 63 | 1016.2 |
| 20260505204558 | 66 | 197 | 0.9 | 2.6 | 0.00 | 0.56 | 0.02 | 64 | 1016.3 |
| 20260505203053 | 65 | 273 | 0.0 | 3.5 | 0.00 | 0.56 | 0.02 | 66 | 1016.4 |
| 20260505201553 | 66 | 121 | 0.9 | 2.6 | 0.00 | 0.56 | 0.02 | 65 | 1016.4 |
| 20260505200100 | 65 | 10 | 0.0 | 2.6 | 0.00 | 0.56 | 0.02 | 66 | 1016.5 |
| 20260505194549 | 65 | 107 | 0.0 | 3.5 | 0.00 | 0.56 | 0.02 | 68 | 1016.6 |
| 20260505193048 | 63 | 292 | 0.0 | 1.7 | 0.00 | 0.56 | 0.02 | 70 | 1016.5 |
| 20260505191538 | 63 | 275 | 0.0 | 1.7 | 0.00 | 0.56 | 0.02 | 71 | 1016.7 |
| 20260505190039 | 62 | 306 | 0.9 | 3.5 | 0.00 | 0.56 | 0.02 | 73 | 1016.7 |
| 20260505184532 | 62 | 71 | 0.9 | 2.6 | 0.00 | 0.57 | 0.02 | 74 | 1016.6 |
| 20260505183030 | 61 | 119 | 0.0 | 0.0 | 0.00 | 0.57 | 0.02 | 76 | 1016.6 |
| 20260505181528 | 61 | 200 | 0.0 | 0.0 | 0.00 | 0.57 | 0.02 | 77 | 1016.5 |
| 20260505180050 | 60 | 71 | 0.0 | 3.5 | 0.00 | 0.57 | 0.02 | 79 | 1016.4 |
| 20260505174546 | 60 | 290 | 0.0 | 0.0 | 0.00 | 0.57 | 0.02 | 81 | 1016.4 |
| 20260505173025 | 59 | 135 | 0.0 | 0.9 | 0.00 | 0.57 | 0.02 | 80 | 1016.3 |
| 20260505171523 | 58 | 12 | 0.0 | 1.7 | 0.00 | 0.57 | 0.02 | 82 | 1016.3 |
| 20260505170018 | 58 | 16 | 0.0 | 3.5 | 0.00 | 0.57 | 0.02 | 83 | 1016.3 |
| 20260505164516 | 57 | 12 | 0.9 | 3.5 | 0.00 | 0.57 | 0.02 | 85 | 1016.3 |
| 20260505163019 | 57 | 13 | 1.7 | 5.2 | 0.00 | 0.57 | 0.02 | 86 | 1016.2 |
| 20260505161510 | 56 | 12 | 0.0 | 5.2 | 0.00 | 0.57 | 0.02 | 87 | 1016.1 |
| 20260505153004 | 55 | 119 | 0.9 | 6.1 | 0.00 | 0.57 | 0.02 | 89 | 1016.0 |
| 20260505151502 | 55 | 130 | 0.9 | 6.1 | 0.00 | 0.57 | 0.02 | 90 | 1015.8 |
| 20260505140107 | 54 | 159 | 0.9 | 7.0 | 0.00 | 0.57 | 0.02 | 91 | 1015.3 |
| 20260505124554 | 53 | 152 | 0.0 | 3.5 | 0.00 | 0.57 | 0.02 | 92 | 1014.8 |
| 20260505123101 | 53 | 150 | 0.0 | 4.3 | 0.00 | 0.57 | 0.02 | 92 | 1014.8 |
| 20260505121553 | 53 | 130 | 1.7 | 4.3 | 0.00 | 0.57 | 0.02 | 92 | 1014.8 |
| 20260505120052 | 53 | 132 | 0.9 | 4.3 | 0.00 | 0.57 | 0.02 | 92 | 1014.8 |
| 20260505114550 | 53 | 127 | 0.9 | 4.3 | 0.00 | 0.57 | 0.02 | 92 | 1014.9 |
| 20260505113101 | 53 | 157 | 0.0 | 4.3 | 0.00 | 0.57 | 0.02 | 92 | 1015.0 |
| 20260505111549 | 53 | 155 | 1.7 | 4.3 | 0.00 | 0.57 | 0.02 | 92 | 1015.1 |
| 20260505101545 | 53 | 139 | 1.7 | 4.3 | 0.00 | 0.57 | 0.02 | 92 | 1015.1 |
| 20260505100050 | 53 | 165 | 0.9 | 6.1 | 0.00 | 0.57 | 0.02 | 92 | 1015.0 |
| 20260505094545 | 53 | 169 | 0.9 | 4.3 | 0.00 | 0.57 | 0.02 | 92 | 1015.1 |
| 20260505093042 | 53 | 145 | 0.0 | 3.5 | 0.00 | 0.57 | 0.02 | 92 | 1015.4 |
| 20260505091555 | 53 | 139 | 0.0 | 5.2 | 0.00 | 0.57 | 0.02 | 92 | 1015.4 |
| 20260505090043 | 53 | 134 | 1.7 | 6.1 | 0.00 | 0.57 | 0.02 | 92 | 1015.6 |
| 20260505084539 | 53 | 145 | 1.7 | 6.1 | 0.01 | 0.57 | 0.02 | 92 | 1015.7 |
| 20260505083039 | 53 | 130 | 2.6 | 7.0 | 0.01 | 0.57 | 0.02 | 92 | 1015.5 |
| 20260505081538 | 54 | 144 | 0.9 | 4.3 | 0.01 | 0.57 | 0.02 | 92 | 1015.5 |
| 20260505080034 | 54 | 107 | 0.9 | 4.3 | 0.02 | 0.57 | 0.02 | 92 | 1015.6 |
| 20260505074532 | 54 | 169 | 1.7 | 6.1 | 0.02 | 0.56 | 0.01 | 92 | 1015.8 |
| 20260505073034 | 54 | 150 | 0.9 | 3.5 | 0.03 | 0.56 | 0.01 | 93 | 1016.1 |
| 20260505071529 | 54 | 121 | 0.0 | 3.5 | 0.05 | 0.56 | 0.00 | 92 | 1016.0 |
| 20260505070029 | 54 | 159 | 0.0 | 2.6 | 0.08 | 0.56 | 0.00 | 93 | 1016.0 |
| 20260505064528 | 54 | 86 | 0.0 | 2.6 | 0.09 | 0.55 | 0.55 | 92 | 1016.1 |
| 20260505063026 | 54 | 115 | 0.0 | 2.6 | 0.10 | 0.54 | 0.54 | 92 | 1016.0 |
| 20260505061532 | 54 | 131 | 0.0 | 0.0 | 0.08 | 0.51 | 0.51 | 92 | 1015.9 |
| 20260505060024 | 54 | 85 | 0.0 | 0.0 | 0.06 | 0.48 | 0.48 | 92 | 1016.0 |
| 20260505054524 | 54 | 85 | 0.0 | 0.0 | 0.04 | 0.46 | 0.46 | 92 | 1016.1 |
| 20260505053025 | 54 | 72 | 0.0 | 0.0 | 0.06 | 0.44 | 0.44 | 92 | 1016.1 |
| 20260505051543 | 54 | 90 | 1.7 | 2.6 | 0.07 | 0.43 | 0.43 | 92 | 1015.8 |
| 20260505041519 | 54 | 64 | 0.0 | 0.0 | 0.11 | 0.35 | 0.35 | 91 | 1016.1 |
| 20260505040024 | 54 | 61 | 0.0 | 0.0 | 0.13 | 0.33 | 0.33 | 91 | 1016.2 |
| 20260505034519 | 54 | 86 | 0.0 | 0.0 | 0.13 | 0.32 | 0.32 | 91 | 1016.0 |
| 20260505033019 | 54 | 50 | 0.0 | 0.0 | 0.10 | 0.28 | 0.28 | 90 | 1016.1 |
| 20260505031517 | 54 | 72 | 0.0 | 1.7 | 0.07 | 0.24 | 0.24 | 90 | 1016.5 |
| 20260505030015 | 54 | 76 | 0.0 | 3.5 | 0.04 | 0.20 | 0.20 | 89 | 1016.2 |
| 20260505024517 | 55 | 74 | 1.7 | 6.1 | 0.04 | 0.18 | 0.18 | 88 | 1015.9 |
| 20260505023014 | 55 | 144 | 2.6 | 7.0 | 0.04 | 0.18 | 0.18 | 89 | 1014.8 |
| 20260505021514 | 55 | 117 | 2.6 | 7.0 | 0.04 | 0.17 | 0.17 | 89 | 1015.0 |
| 20260505020013 | 56 | 107 | 1.7 | 4.3 | 0.04 | 0.16 | 0.16 | 89 | 1015.2 |
| 20260505014512 | 56 | 84 | 0.9 | 2.6 | 0.02 | 0.14 | 0.14 | 89 | 1015.2 |
| 20260505013012 | 56 | 104 | 0.0 | 3.5 | 0.03 | 0.14 | 0.14 | 89 | 1015.1 |
| 20260505011515 | 56 | 130 | 0.9 | 2.6 | 0.03 | 0.13 | 0.13 | 89 | 1015.3 |
| 20260505010114 | 56 | 95 | 0.0 | 5.2 | 0.04 | 0.12 | 0.12 | 89 | 1015.5 |
| 20260505004511 | 56 | 147 | 0.0 | 6.1 | 0.05 | 0.12 | 0.12 | 89 | 1015.8 |
| 20260505003019 | 56 | 112 | 1.7 | 7.8 | 0.05 | 0.11 | 0.11 | 88 | 1015.8 |
| 20260505001509 | 56 | 62 | 2.6 | 7.0 | 0.06 | 0.10 | 0.10 | 89 | 1015.7 |
| 20260505000009 | 56 | 91 | 3.5 | 7.0 | 0.05 | 0.08 | 0.08 | 88 | 1015.7 |
| 20260504234509 | 57 | 104 | 0.0 | 8.7 | 0.04 | 0.07 | 0.07 | 88 | 1015.5 |
| 20260504233007 | 57 | 107 | 3.5 | 7.8 | 0.04 | 0.06 | 0.06 | 86 | 1015.6 |
| 20260504231506 | 58 | 137 | 2.6 | 7.0 | 0.03 | 0.04 | 0.04 | 86 | 1015.5 |
| 20260504230006 | 58 | 82 | 0.9 | 4.3 | 0.02 | 0.03 | 0.03 | 85 | 1015.9 |
| 20260504224505 | 59 | 96 | 1.7 | 5.2 | 0.01 | 0.02 | 0.02 | 83 | 1015.8 |
| 20260504223005 | 60 | 78 | 1.7 | 4.3 | 0.01 | 0.02 | 0.02 | 80 | 1016.0 |
| 20260504221503 | 60 | 120 | 0.0 | 0.0 | 0.00 | 0.01 | 0.01 | 75 | 1015.9 |
| 20260504220003 | 60 | 105 | 0.0 | 2.6 | 0.00 | 0.01 | 0.01 | 73 | 1015.9 |
| 20260504214504 | 61 | 142 | 0.0 | 3.5 | 0.00 | 0.01 | 0.01 | 73 | 1016.1 |